TimeCDT,TemperatureF,Dew PointF,Humidity,Sea Level PressureIn,VisibilityMPH,Wind Direction,Wind SpeedMPH,Gust SpeedMPH,PrecipitationIn,Events,Conditions,WindDirDegrees,DateUTC
12:55 AM,62.8,55.0,76,29.96,10.0,North,9.2,-,N/A,,Partly Cloudy,350,2013-10-08 05:55:00
1:55 AM,62.2,54.7,76,29.96,10.0,North,9.2,-,N/A,,Mostly Cloudy,360,2013-10-08 06:55:00
2:55 AM,61.9,53.4,74,29.95,10.0,North,11.5,-,N/A,,Partly Cloudy,10,2013-10-08 07:55:00
3:55 AM,60.4,53.6,78,29.95,10.0,North,11.5,-,N/A,,Clear,10,2013-10-08 08:55:00
4:55 AM,58.8,53.2,82,29.95,10.0,North,8.1,-,N/A,,Clear,360,2013-10-08 09:55:00
5:55 AM,58.1,53.1,83,29.96,10.0,North,8.1,-,N/A,,Partly Cloudy,360,2013-10-08 10:55:00
6:55 AM,57.6,52.9,84,29.97,10.0,North,8.1,-,N/A,,Partly Cloudy,360,2013-10-08 11:55:00
7:55 AM,60.6,53.6,78,29.98,10.0,North,8.1,-,N/A,,Partly Cloudy,10,2013-10-08 12:55:00
8:55 AM,64.4,53.6,68,30.01,10.0,North,5.8,-,N/A,,Partly Cloudy,10,2013-10-08 13:55:00
9:55 AM,70.0,57.4,64,30.00,10.0,NNE,6.9,-,N/A,,Scattered Clouds,30,2013-10-08 14:55:00
10:55 AM,74.3,59.4,60,30.00,10.0,Variable,3.5,-,N/A,,Scattered Clouds,0,2013-10-08 15:55:00
11:55 AM,78.6,62.1,57,30.00,10.0,Variable,5.8,-,N/A,,Scattered Clouds,0,2013-10-08 16:55:00
12:55 PM,81.5,64.0,55,29.98,10.0,North,6.9,-,N/A,,Mostly Cloudy,10,2013-10-08 17:55:00
1:55 PM,80.4,64.6,58,29.98,10.0,Variable,2.3,-,N/A,,Mostly Cloudy,0,2013-10-08 18:55:00
2:59 PM,79.5,66.4,64,29.97,10.0,Variable,3.5,-,N/A,,Mostly Cloudy,0,2013-10-08 19:59:00
3:55 PM,80.6,66.7,63,29.97,10.0,WNW,3.5,-,N/A,,Scattered Clouds,300,2013-10-08 20:55:00
4:55 PM,80.1,66.0,62,29.97,10.0,SW,4.6,-,N/A,,Scattered Clouds,230,2013-10-08 21:55:00
5:55 PM,77.9,67.6,71,29.98,10.0,NNE,2.3,-,N/A,,Scattered Clouds,20,2013-10-08 22:55:00
6:55 PM,75.6,67.6,76,29.99,10.0,North,3.5,-,N/A,,Partly Cloudy,10,2013-10-08 23:55:00
7:55 PM,73.0,68.7,86,30.00,10.0,North,3.5,-,N/A,,Partly Cloudy,350,2013-10-09 00:55:00
8:55 PM,71.6,68.4,89,30.01,10.0,North,3.5,-,N/A,,Partly Cloudy,10,2013-10-09 01:55:00
9:55 PM,71.1,68.5,92,30.02,10.0,North,3.5,-,N/A,,Mostly Cloudy,10,2013-10-09 02:55:00
10:55 PM,71.8,68.7,90,30.03,10.0,NNE,5.8,-,N/A,,Scattered Clouds,30,2013-10-09 03:55:00
11:55 PM,73.0,67.8,84,30.03,10.0,ENE,6.9,-,N/A,,Scattered Clouds,60,2013-10-09 04:55:00